User: anonymous   Login
Location: Newsoms
(36.6240°N, 77.1250°W)
Time: 12:39:47
(UTC-05:00)
Language:

BREEZE-M DEB (TANK) - Orbit

View from above orbital plane
View from above orbital plane
View from above satellite
View from above satellite

Ground track
Ground track

The orbit data is extracted from the following two-line orbital elements,

1 29649U 06056B   14325.15183595  .00003561  00000-0  56047-3 0   563
2 29649 049.4663 197.2982 5412378 297.8725 298.5778 04.95416067141006
Epoch (UTC): 21 November 2014 03:38:38
Eccentricity: 0.5412378
inclination: 49.4663°
perigee height: 290 km
apogee height: 16024 km
right ascension of ascending node: 197.2982°
argument of perigee: 297.8725°
revolutions per day: 4.95416067
mean anomaly at epoch: 298.5778°
orbit number at epoch: 14100

The dashed part of the orbit path shows where the satellite is in the earth's shadow,  

DLR